[[{"header":{"parameterUnit":"m.s-1","parameterCategory":1,"la1":30.2991,"la2":30.254,"lo1":-89.0895,"lo2":-89.0444,"dy":0.0017,"dx":0.0017,"nx":28,"ny":28,"refTime":"2023-08-15T03:00:00:Z","depth":0,"parameterNumber":2,"parameterNumberName":"U-component_of_WINDS"},"data":[0,0,0,0,0,0,0,0,0,0,0,0,0,0,0,0,0,0,0,0,0,0,0,0,0,0,0,0,0,0,0,0,0,0,0,0,0,0,0,0,0,0,0,0,0,0,0,0,0,0,0,0,0,0,0,0,0,0,-1.6461,-1.646,0,-1.64,-1.6399,-1.6399,-1.6336,-1.6335,-1.6334,-1.6333,-1.6269,-1.6268,-1.6267,0,0,0,0,0,0,0,0,0,0,0,0,0,-1.6521,-1.652,-1.6461,-1.646,-1.6459,-1.64,-1.6399,-1.6398,-1.6336,-1.6335,-1.6334,-1.6333,-1.6269,-1.6268,-1.6267,0,0,0,0,0,0,0,0,0,0,0,0,0,-1.6481,-1.652,-1.6461,-1.6421,-1.6417,-1.64,-1.6399,-1.6398,-1.6336,-1.6335,-1.6333,-1.6332,-1.627,-1.6268,-1.6267,-1.6285,0,0,-1.6263,-1.6262,0,0,0,0,0,0,0,0,-1.6483,-1.6479,-1.6428,-1.6424,-1.6419,-1.6374,-1.6397,-1.636,-1.6336,-1.6367,-1.6333,-1.6332,-1.6305,-1.6301,-1.6292,-1.6282,-1.6279,-1.6263,-1.6262,-1.6261,-1.6261,0,0,0,0,0,0,0,-1.6486,-1.6481,-1.6437,-1.6427,-1.6422,-1.6405,-1.6398,-1.639,-1.6344,-1.6364,-1.6359,-1.6353,-1.6302,-1.6293,-1.629,-1.6278,-1.6263,-1.6262,-1.6261,-1.626,-1.6279,-1.628,0,0,0,0,0,0,-1.6495,-1.6484,-1.6439,-1.6435,-1.6449,-1.6405,-1.6397,-1.639,-1.6344,-1.6335,-1.6354,-1.635,-1.6296,-1.6292,-1.6287,-1.6305,-1.6261,-1.626,-1.6259,-1.6278,-1.6279,-1.6281,0,0,0,0,0,0,-1.6497,-1.6492,-1.6441,-1.6458,-1.645,-1.6406,-1.6398,-1.6389,-1.638,-1.6336,-1.6328,-1.6354,-1.6295,-1.6289,-1.6286,-1.6302,-1.6259,-1.6258,-1.6276,-1.6278,-1.628,-1.6341,0,0,0,0,0,0,-1.6499,-1.6493,-1.6499,-1.6459,-1.645,-1.6441,-1.6399,-1.6389,-1.6378,-1.6373,-1.6334,-1.6326,-1.6294,-1.6288,-1.6285,-1.63,-1.6257,-1.6275,-1.6277,-1.6279,-1.6338,-1.6345,-1.6352,0,0,0,0,0,-1.6501,-1.6518,-1.65,-1.6495,-1.6457,-1.6442,-1.6437,-1.6401,-1.638,-1.6386,-1.6358,-1.6327,-1.6301,-1.6289,-1.6284,-1.6299,-1.6273,-1.6276,-1.6279,-1.6335,-1.6344,-1.6351,0,0,0,0,0,0,-1.6561,-1.6512,-1.6491,-1.6496,-1.6474,-1.6432,-1.6438,-1.6411,-1.6394,-1.6389,-1.6344,-1.6335,-1.6338,-1.6317,-1.6304,-1.6313,-1.6283,-1.6285,-1.6327,-1.6335,-1.6342,-1.6347,-1.6256,0,0,0,0,0,-1.6575,-1.6568,-1.6525,-1.6534,-1.6524,-1.6483,-1.6475,-1.6449,-1.6424,-1.6414,-1.6385,-1.6362,-1.6348,-1.634,-1.6325,-1.6334,-1.6325,-1.6342,-1.6349,-1.6355,-1.6358,-1.6361,-1.6368,-1.629,-1.629,-1.629,0,0,-1.6604,-1.6576,-1.6574,-1.6545,-1.6525,-1.6518,-1.6476,-1.647,-1.6464,-1.6413,-1.6408,-1.6387,-1.6357,-1.636,-1.636,-1.6344,-1.6377,-1.6359,-1.6364,-1.6363,-1.6365,-1.6372,-1.6379,-1.6292,-1.6292,-1.6292,0,0,-1.6653,-1.6631,-1.6636,-1.6617,-1.6587,-1.656,-1.6561,-1.6523,-1.6507,-1.6502,-1.6463,-1.6455,-1.6433,-1.6414,-1.6401,-1.6443,-1.6414,-1.6439,-1.6476,-1.648,-1.6486,-1.6491,-1.6507,-1.6513,-1.6442,-1.6442,-1.6442,0,-1.6692,-1.6681,-1.6642,-1.6639,-1.6627,-1.6581,-1.6586,-1.6569,-1.6535,-1.6528,-1.651,-1.6482,-1.6458,-1.6456,-1.6467,-1.6458,-1.6458,-1.6444,-1.6488,-1.6493,-1.6498,-1.6512,-1.6518,-1.6445,-1.6445,-1.6445,-1.6444,0,-1.6731,-1.6723,-1.6731,-1.6701,-1.669,-1.6691,-1.6652,-1.6645,-1.662,-1.6595,-1.659,-1.656,-1.6539,-1.6536,-1.6511,-1.6531,-1.6522,-1.6497,-1.6465,-1.6509,-1.6522,-1.6527,-1.645,-1.6449,-1.6448,-1.6447,0,0,-1.6816,-1.6765,-1.6768,-1.6754,-1.6718,-1.6711,-1.671,-1.669,-1.6685,-1.6664,-1.6661,-1.6644,-1.662,-1.6606,-1.6578,-1.6582,-1.6618,-1.6556,-1.6555,-1.6569,-1.6638,-1.6658,-1.6665,-1.6598,-1.6599,-1.66,-1.6641,0,-1.6859,-1.6854,-1.6819,-1.6825,-1.6818,-1.6774,-1.6773,-1.675,-1.6727,-1.6717,-1.669,-1.6679,-1.6649,-1.664,-1.6641,-1.6613,-1.6631,-1.6609,-1.6595,-1.6595,-1.6605,-1.6671,-1.6691,-1.6732,-1.6645,-1.6646,-1.6647,0,-1.6908,-1.6891,-1.6896,-1.686,-1.6856,-1.6856,-1.6835,-1.6826,-1.6799,-1.6782,-1.6766,-1.6735,-1.6731,-1.6701,-1.6694,-1.6681,-1.6673,-1.6658,-1.6659,-1.6656,-1.6624,-1.6671,-1.6744,-1.675,-1.6654,-1.6653,-1.6653,0,-1.6971,-1.6948,-1.6949,-1.6938,-1.6896,-1.6897,-1.6879,-1.6852,-1.6842,-1.6823,-1.6816,-1.6797,-1.6787,-1.6772,-1.6737,-1.6718,-1.6734,-1.6701,-1.6719,-1.6721,-1.6725,-1.6725,-1.6798,-1.6719,-1.6719,-1.6719,-1.6719,0,-1.7023,-1.7028,-1.6976,-1.6977,-1.6981,-1.694,-1.6945,-1.6923,-1.6899,-1.6894,-1.6854,-1.685,-1.6804,-1.6794,-1.6766,-1.6765,-1.676,-1.6746,-1.6739,-1.675,-1.6752,-1.6744,-1.6741,-1.6721,-1.672,-1.672,-1.672,0,-1.7093,-1.7059,-1.7057,-1.7017,-1.7008,-1.7013,-1.6979,-1.6977,-1.6951,-1.6945,-1.6942,-1.6901,-1.6887,-1.6851,-1.6827,-1.6809,-1.6816,-1.6802,-1.6825,-1.6821,-1.6841,-1.684,-1.6912,-1.6919,-1.6836,-1.6837,-1.6837,0,-1.7129,-1.7132,-1.7093,-1.7088,-1.7072,-1.7063,-1.7053,-1.7013,-1.7004,-1.6975,-1.6977,-1.6961,-1.6946,-1.6926,-1.6894,-1.6877,-1.6862,-1.6888,-1.6859,-1.687,-1.6863,-1.6864,-1.6864,-1.6895,-1.6896,-1.6897,-1.6898,0,-1.7196,-1.7179,-1.7167,-1.7149,-1.7138,-1.7122,-1.7103,-1.7101,-1.7056,-1.7048,-1.7034,-1.7023,-1.7,-1.6984,-1.6962,-1.6943,-1.6913,-1.6907,-1.6911,-1.6922,-1.6936,-1.693,-1.6843,-1.6906,-1.6905,-1.6904,-1.6904,-1.6904,-1.725,-1.7251,-1.7225,-1.7212,-1.7194,-1.7178,-1.7175,-1.7149,-1.7137,-1.7116,-1.7093,-1.7082,-1.7055,-1.7022,-1.7005,-1.6996,-1.698,-1.6985,-1.6986,-1.6988,-1.6993,-1.6938,-1.6991,-1.6991,-1.6991,-1.6991,-1.699,0,-1.7316,-1.7297,-1.7286,-1.7262,-1.7252,-1.7225,-1.7203,-1.7197,-1.7188,-1.7166,-1.7153,-1.7137,-1.7122,-1.7089,-1.7071,-1.707,-1.7055,-1.7066,-1.7066,-1.7062,-1.7008,-1.7008,-1.7078,-1.7078,-1.7078,-1.7078,-1.7078,-1.7078,-1.7349,-1.735,-1.733,-1.732,-1.7301,-1.7291,-1.728,-1.7265,-1.7247,-1.7232,-1.722,-1.7199,-1.7172,-1.7152,-1.7136,-1.7127,-1.7122,-1.7138,-1.7124,-1.7074,-1.7066,-1.7058,-1.7057,-1.7137,-1.7137,-1.7179,-1.7179,-1.7179]},{"header":{"parameterUnit":"m.s-1","parameterCategory":1,"la1":30.2991,"la2":30.254,"lo1":-89.0895,"lo2":-89.0444,"dy":0.0017,"dx":0.0017,"nx":28,"ny":28,"refTime":"2023-08-15T03:00:00:Z","depth":0,"parameterNumber":3,"parameterNumberName":"V-component_of_WINDS"},"data":[0,0,0,0,0,0,0,0,0,0,0,0,0,0,0,0,0,0,0,0,0,0,0,0,0,0,0,0,0,0,0,0,0,0,0,0,0,0,0,0,0,0,0,0,0,0,0,0,0,0,0,0,0,0,0,0,0,0,-1.4143,-1.4144,0,-1.4206,-1.4207,-1.4208,-1.4232,-1.4231,-1.4231,-1.4231,-1.4294,-1.4296,-1.4298,0,0,0,0,0,0,0,0,0,0,0,0,0,-1.4043,-1.4045,-1.4143,-1.4144,-1.4145,-1.4206,-1.4207,-1.4208,-1.4232,-1.4231,-1.4231,-1.4231,-1.4294,-1.4296,-1.4298,0,0,0,0,0,0,0,0,0,0,0,0,0,-1.4094,-1.4045,-1.4143,-1.4164,-1.4167,-1.4206,-1.4207,-1.4208,-1.4232,-1.4231,-1.4231,-1.4231,-1.4293,-1.4296,-1.4298,-1.4321,0,0,-1.4307,-1.4308,0,0,0,0,0,0,0,0,-1.4091,-1.4098,-1.416,-1.4163,-1.4166,-1.4211,-1.4195,-1.4246,-1.4232,-1.4207,-1.4231,-1.4231,-1.4267,-1.4272,-1.4284,-1.4324,-1.4327,-1.4307,-1.4309,-1.431,-1.4311,0,0,0,0,0,0,0,-1.4088,-1.4095,-1.4168,-1.4161,-1.4165,-1.417,-1.4177,-1.4205,-1.4238,-1.4209,-1.4211,-1.4218,-1.4268,-1.4281,-1.4286,-1.4328,-1.4307,-1.4309,-1.4311,-1.4312,-1.439,-1.439,0,0,0,0,0,0,-1.4081,-1.4092,-1.4166,-1.417,-1.4127,-1.4172,-1.418,-1.4197,-1.4237,-1.4243,-1.4218,-1.4219,-1.4277,-1.4282,-1.4288,-1.4318,-1.431,-1.4312,-1.4314,-1.439,-1.439,-1.439,0,0,0,0,0,0,-1.4079,-1.4087,-1.4164,-1.4132,-1.4142,-1.4174,-1.4193,-1.4198,-1.4211,-1.4244,-1.425,-1.4226,-1.4277,-1.4284,-1.4313,-1.432,-1.4314,-1.4316,-1.4389,-1.439,-1.439,-1.4377,0,0,0,0,0,0,-1.4076,-1.4086,-1.4095,-1.4132,-1.4144,-1.4188,-1.4193,-1.4199,-1.4216,-1.4218,-1.4253,-1.4258,-1.4277,-1.4309,-1.4316,-1.4324,-1.4318,-1.4389,-1.4389,-1.439,-1.4377,-1.4377,-1.4377,0,0,0,0,0,-1.4072,-1.4089,-1.4096,-1.4105,-1.4156,-1.4188,-1.4195,-1.4216,-1.4217,-1.4226,-1.4247,-1.4257,-1.4318,-1.4311,-1.4319,-1.4329,-1.4388,-1.4389,-1.439,-1.4377,-1.4377,-1.4377,0,0,0,0,0,0,-1.4052,-1.4094,-1.4102,-1.4131,-1.4156,-1.4192,-1.4205,-1.4216,-1.4241,-1.4241,-1.4266,-1.4273,-1.43,-1.4317,-1.4309,-1.4353,-1.4354,-1.4356,-1.4341,-1.4342,-1.4342,-1.4337,-1.4321,0,0,0,0,0,-1.4051,-1.4074,-1.411,-1.4132,-1.4144,-1.4172,-1.4187,-1.4201,-1.4228,-1.4238,-1.4262,-1.4287,-1.4312,-1.4327,-1.4352,-1.4379,-1.4388,-1.439,-1.439,-1.439,-1.4392,-1.4408,-1.441,-1.4393,-1.4393,-1.4393,0,0,-1.4049,-1.4075,-1.4088,-1.4129,-1.415,-1.4173,-1.4181,-1.4205,-1.4223,-1.4242,-1.4271,-1.4289,-1.4318,-1.4347,-1.436,-1.4362,-1.4398,-1.4391,-1.4391,-1.4393,-1.4409,-1.4411,-1.4412,-1.4394,-1.4394,-1.4394,0,0,-1.4058,-1.408,-1.4101,-1.4122,-1.4154,-1.4173,-1.4178,-1.4212,-1.4225,-1.4255,-1.427,-1.4291,-1.4333,-1.4353,-1.4369,-1.4386,-1.4397,-1.4393,-1.4394,-1.441,-1.4411,-1.4412,-1.4419,-1.4421,-1.4395,-1.4395,-1.4395,0,-1.4052,-1.4088,-1.4111,-1.4135,-1.4152,-1.4171,-1.4193,-1.4212,-1.425,-1.4261,-1.4262,-1.4316,-1.4337,-1.437,-1.4375,-1.4387,-1.4393,-1.439,-1.4409,-1.4411,-1.4412,-1.4419,-1.4421,-1.4395,-1.4395,-1.4395,-1.4395,0,-1.4079,-1.4104,-1.4118,-1.4154,-1.4173,-1.4196,-1.4222,-1.4238,-1.425,-1.4269,-1.4299,-1.4325,-1.4355,-1.4364,-1.4376,-1.44,-1.44,-1.4404,-1.4406,-1.4413,-1.4419,-1.4422,-1.4394,-1.4394,-1.4394,-1.4394,0,0,-1.4078,-1.4127,-1.4132,-1.4149,-1.4185,-1.4205,-1.4228,-1.4258,-1.4272,-1.4297,-1.4318,-1.4353,-1.4358,-1.4376,-1.4391,-1.4404,-1.4416,-1.4408,-1.4409,-1.4409,-1.4444,-1.4441,-1.4443,-1.4423,-1.4424,-1.4424,-1.4442,0,-1.4092,-1.4136,-1.4157,-1.4191,-1.4214,-1.4232,-1.4253,-1.4277,-1.4295,-1.4317,-1.4336,-1.4361,-1.4366,-1.4377,-1.4391,-1.4412,-1.4424,-1.4411,-1.4442,-1.4443,-1.4435,-1.4447,-1.4443,-1.4459,-1.4445,-1.4445,-1.4445,0,-1.4115,-1.4141,-1.4177,-1.4211,-1.4222,-1.424,-1.427,-1.4291,-1.4319,-1.4331,-1.4351,-1.4365,-1.439,-1.4389,-1.4424,-1.4415,-1.4429,-1.4441,-1.4442,-1.4447,-1.4445,-1.4452,-1.4464,-1.4467,-1.445,-1.4449,-1.4449,0,-1.4111,-1.4155,-1.4183,-1.4197,-1.4237,-1.4249,-1.4266,-1.4294,-1.4311,-1.4337,-1.4348,-1.4376,-1.4391,-1.4412,-1.4434,-1.4431,-1.4467,-1.4468,-1.4478,-1.4477,-1.4485,-1.4484,-1.45,-1.4493,-1.4493,-1.4493,-1.4493,0,-1.4125,-1.4147,-1.4182,-1.4199,-1.4224,-1.4247,-1.4271,-1.429,-1.4314,-1.4335,-1.4352,-1.4371,-1.4398,-1.442,-1.4437,-1.4464,-1.447,-1.4481,-1.4485,-1.448,-1.4478,-1.449,-1.4489,-1.4493,-1.4493,-1.4493,-1.4493,0,-1.4125,-1.4149,-1.4181,-1.4216,-1.4226,-1.4243,-1.4273,-1.429,-1.4309,-1.4335,-1.4343,-1.4372,-1.4399,-1.4422,-1.4458,-1.4469,-1.4497,-1.4502,-1.4488,-1.449,-1.4499,-1.4498,-1.4524,-1.4528,-1.4517,-1.4517,-1.4517,0,-1.4133,-1.415,-1.4188,-1.4204,-1.4221,-1.4245,-1.4263,-1.4287,-1.4304,-1.4338,-1.4351,-1.4379,-1.4404,-1.4446,-1.447,-1.4498,-1.4504,-1.4511,-1.4508,-1.4502,-1.4505,-1.4504,-1.4506,-1.4511,-1.4511,-1.4511,-1.4511,0,-1.4144,-1.4156,-1.4181,-1.421,-1.4231,-1.4255,-1.4279,-1.4291,-1.4319,-1.4338,-1.4366,-1.4385,-1.4422,-1.445,-1.448,-1.4498,-1.4509,-1.4512,-1.4516,-1.4511,-1.4502,-1.4507,-1.4489,-1.4511,-1.4511,-1.4511,-1.4511,-1.4511,-1.4149,-1.4166,-1.4195,-1.4222,-1.4243,-1.4266,-1.4284,-1.4305,-1.433,-1.4362,-1.4374,-1.4403,-1.4431,-1.4473,-1.449,-1.4513,-1.4515,-1.452,-1.4522,-1.4523,-1.4522,-1.4498,-1.4518,-1.4518,-1.4518,-1.4518,-1.4518,0,-1.4162,-1.4182,-1.4207,-1.4241,-1.4263,-1.4272,-1.4299,-1.4317,-1.4342,-1.4367,-1.4391,-1.4424,-1.4451,-1.4478,-1.4506,-1.452,-1.4526,-1.4526,-1.4526,-1.453,-1.4519,-1.4513,-1.4521,-1.4521,-1.4521,-1.4521,-1.4521,-1.4521,-1.4172,-1.42,-1.4215,-1.4254,-1.4274,-1.4303,-1.4318,-1.4339,-1.4359,-1.4395,-1.4418,-1.4435,-1.4461,-1.4492,-1.4517,-1.4524,-1.4534,-1.4534,-1.4542,-1.4531,-1.4531,-1.453,-1.4525,-1.4536,-1.4536,-1.4552,-1.4552,-1.4552]}]]